Torna al catalogo

TDRS 9

AttivoComunicazioniGEO
NORAD 27389·PAYLOAD·🇺🇸 United States

Lanciato Mar 8, 2002 da Cape Canaveral Space Force Station

Loading…

TLE

AggiornatoSource: Space-Track

Epoca: Sep 14, 2026, 13:04 UTC

1 27389U 02011A   26257.54455075 -.00000033  00000-0  00000-0 0  9997
2 27389  12.3577  45.8901 0006163 149.6299 199.2241  0.98982519 91165

Traccia TDRS 9 in tempo reale con AllMySat

Download on the App Store